Weather Roundup
Issued by NWS Springfield, MO

Home | Current Version | Previous Version | Text Only | Print | Product List | Glossary On
Versions: 1 2 3 4 5 6 7 8 9 10 11 12 13 14 15 16 17 18 19 20 21 22 23 24 25 26 27 28 29 30 31 32 33 34 35 36 37 38 39 40 41 42 43 44 45 46 47 48 49 50
000
NZUS99 KSGF 231107
HRRSGF

HOURLY WEATHER
NATIONAL WEATHER SERVICE SPRINGFIELD MO
600 AM CDT THU OCT 23 2014

......SGF CWA......

CITY           SKY/WX    TMP DP  RH WIND       PRES   REMARKS
SPRINGFIELD    CLOUDY    52  44  74 S10       30.16R
JOPLIN         CLOUDY    57  51  80 S5        30.14S
WEST PLAINS    PTCLDY    37  35  92 CALM      30.20S
ROLLA          CLOUDY    45  40  82 S10       30.17S
OSAGE BEACH    CLOUDY    48  41  76 SE8       30.16F
BRANSON        CLOUDY    50  45  81 SE5       30.18S

......SURROUNDING SGF CWA......

CITY           SKY/WX    TMP DP  RH WIND       PRES   REMARKS
CHANUTE        LGT RAIN  60  58  92 S8        30.11S
PARSONS        CLOUDY    60  58  92 S3        30.13R
COFFEYVILLE    CLOUDY    59  57  93 S6        30.12S
EMPORIA        CLOUDY    61  60  97 S5        30.08R
GROVE OK       CLOUDY    59  52  77 CALM      30.15S
ROGERS AR      CLOUDY    54  49  83 E5        30.16S
SILOAM SPRINGS CLOUDY    55  46  71 SW3       30.17R
HARRISON AR    CLOUDY    48  47  96 SE8       30.17S
NEAR YELLVILLE CLOUDY    45  39  81 CALM      30.20S

......KANSAS AND MISSOURI......

CITY           SKY/WX    TMP DP  RH WIND       PRES   REMARKS
KANSAS CTY INT CLOUDY    57  56  96 S9        30.09F
DOWNTOWN KC    LGT RAIN  59  55  87 S9        30.09F
COLUMBIA       CLOUDY    46  42  86 S7        30.17R
SEDALIA        CLOUDY    55  46  71 S10       30.15S
ST JOSEPH      CLOUDY    57  56  96 S6        30.07F
ST LOUIS       PTCLDY    43  38  82 SE6       30.20F
SPIRIT OF STL  CLEAR     35  35 100 CALM      30.19S
KIRKSVILLE     CLOUDY    50  45  83 S7        30.14R
WICHITA        CLOUDY    61  58  90 S9        30.08S
TOPEKA         LGT RAIN  62  61  96 SE9       30.08F
OLATHE         LGT RAIN  57  56  96 S6        30.11F

......TENNESSEE......

CITY           SKY/WX    TMP DP  RH WIND       PRES   REMARKS
MEMPHIS        PTCLDY    46  41  82 E3        30.17F
NASHVILLE      CLEAR     42  40  92 NE3       30.23F

......ARKANSAS.......

CITY           SKY/WX    TMP DP  RH WIND       PRES   REMARKS
FAYETTEVILLE   CLOUDY    52  50  93 CALM      30.16S
FT SMITH       CLOUDY    55  48  77 E6        30.16S
LITTLE ROCK    PTCLDY    48  42  80 NE5       30.19S

......OKLAHOMA.......

CITY           SKY/WX    TMP DP  RH WIND       PRES   REMARKS
TULSA          CLOUDY    61  59  93 SE6       30.11R
PONCA CITY     CLOUDY    63  61  93 S8        30.09R
MCALESTER      CLOUDY    60  55  83 CALM      30.15R
OKLAHOMA CITY  CLOUDY    62  56  80 S8        30.10S

......IOWA............

CITY           SKY/WX    TMP DP  RH WIND       PRES   REMARKS
DES MOINES     CLOUDY    53  49  86 S9        30.04S
QUAD CITIES    CLEAR     39  34  82 E5        30.16S

......ILLINOIS........

CITY           SKY/WX    TMP DP  RH WIND       PRES   REMARKS
QUINCY         MOCLDY    46  40  79 S6        30.17R
CHICAGO        CLEAR     36  35  96 S5        30.21S WCI  32




USA.gov is the U.S. government's official web portal to all federal, state and local government web resources and services.